Regional Weather Roundup
Issued by NWS Bismarck, ND

Home | Current Version | Previous Version | Text Only | Print | Product List | Glossary On
Versions: 1 2 3 4 5 6 7 8 9 10 11 12 13 14 15 16 17 18 19 20 21 22 23 24 25 26 27 28 29 30 31 32 33 34 35 36 37 38 39 40 41 42 43 44 45 46 47 48 49 50
000
ASUS43 KBIS 022310
RWRBIS

NWR BROADCAST TEXT
NATIONAL WEATHER SERVICE BISMARCK ND
600 PM CDT SUN AUG 02 2015

NOTE: "FAIR" INDICATES FEW OR NO CLOUDS BELOW 12,000 FEET WITH NO
SIGNIFICANT WEATHER AND/OR OBSTRUCTIONS TO VISIBILITY.


CITY           SKY/WX    TMP DP  RH WIND       PRES   REMARKS
WILLISTON      SUNNY     82  46  28 N10G20    29.98S
MINOT          SUNNY     78  46  32 NW15G21   29.92F
MINOT AFB      SUNNY     82  46  28 NW13G22   29.91F
BISMARCK       SUNNY     80  53  39 NW14G24   29.93S
DICKINSON      SUNNY     81  45  28 N9        29.97S
GARRISON         N/A     76  52  43 NW15      29.95S
HETTINGER ARPT SUNNY     83  47  28 N9        29.99S
JAMESTOWN      SUNNY     76  51  41 NW14G21   29.89R
CROSBY         FAIR      75  48  38 NW13      29.98S
HARVEY         FAIR      75  48  38 NW18      29.91S
HAZEN          FAIR      77  48  36 N13G21    29.95S
LINTON         FAIR      81  57  44 NW14G21   29.93R
OAKES            N/A     77  57  50 NW13      29.88S
STANLEY        FAIR      75  50  41 NW12G17   29.98S
$$

CITY           SKY/WX    TMP DP  RH WIND       PRES   REMARKS
GRAND FORKS    MOSUNNY   78  47  33 NW20G25   29.81F
GRAND FORKS AF MOSUNNY   76  48  37 NW16G24   29.83S
DEVILS LAKE    SUNNY     75  48  38 NW16G25   29.87S
FARGO          SUNNY     78  47  33 NW18G26   29.83S
CAVALIER       FAIR      75  46  35 NW13G20   29.81S
GRAFTON        FAIR      75  48  38 NW17G23   29.82S
GWINNER        FAIR      79  54  41 NW13      29.87S
LANGDON        FAIR      75  45  33 NW16G26   29.86S
ROLLA          FAIR      70  48  46 NW14G20   29.91S
WALHALLA       FAIR      75  46  35 MISG      29.82S
$$

CITY           SKY/WX    TMP DP  RH WIND       PRES   REMARKS
ABERDEEN       MOSUNNY   81  56  42 N13       29.88S
MOBRIDGE       SUNNY     83  55  38 N9        29.90S
BUFFALO          N/A     85  47  26 E13       29.93F
RAPID CITY     SUNNY     86  53  32 NE6       29.98F
GLASGOW        SUNNY     83  45  26 N7        29.98F
SIDNEY         SUNNY    N/A N/A N/A NW8G21    29.97S
WOLF POINT     SUNNY     87  46  24 N15G21    29.98F
GLENDIVE         N/A    N/A N/A N/A MISG        N/A
MILES CITY     SUNNY     87  47  24 E8        29.98F
BAKER          SUNNY     86  46  24 N17       30.01F
$$

CITY           SKY/WX    TMP DP  RH WIND       PRES   REMARKS
BILLINGS       PTSUNNY   86  43  22 NE13      30.01F
GREAT FALLS    SUNNY     86  44  23 NE7       29.98F
REGINA         MOSUNNY   77  48  36 NW16G22   29.99F
ESTEVAN        MOSUNNY   77  48  36 N14       29.97S
$$




USA.gov is the U.S. government's official web portal to all federal, state and local government web resources and services.